Showing default

VINDLER 2.2, 68484

Orbit data source: Space-Track

VINDLER 2.2, 68484 is a payload satellite owned by Sierra Nevada (US) in SSO that was launched on Mon, 30 Mar 2026 UTC via an FALCON 9 launch vehicle from the Air Force Western Test Range (AFWTR). Payload-class satellites include a variety of spacecraft equipped with specific instruments for various scientific and technological missions. These include communications satellites like Starlink; space stations such as the ISS; scientific satellites like the Hubble; Earth observation satellites from companies like Planet Labs, Umbra, and HawkEye 360; GPS; miniature CubeSats for education and research; and military/defense satellites.

Loading next visibility...
Identifier
68484, 2026-067BW
Orbit
SSO
Country
Flag of USUS
Related business
Manufacturer
Muon Space
Mission
Operational Commercial Sigint
Bus & Motor
MUON HALO, Unknown motor
Mass
~130 kg wet, ~130 kg dry
Launch date (UTC)
2026-03-30 (6 months ago)
Launch vehicle
FALCON 9
Launch site
Air Force Western Test Range (AFWTR)
Object type
Payload
Rocket body
Debris
Shape & HBR
Box + 2 Pan, 2.5 m
Radar Cross Section
2.173 m², Large (>1 m²)

Expand to show TLE details & history
Last TLE update: 12 hours ago

TLE from 12 hours ago
0 VINDLER 2.2
1 68484U 26067BW  26263.20165992  .00000731  00000-0  77124-4 0  9990
2 68484  97.7631 220.9512 0002837  54.1685 305.9797 14.92247186 25949
Epoch: 2026-09-20T04:50Z
TLE epoch observation values (Epoch: 2026-09-20T04:50:23.417Z)
Latitude
-0.00003°
Longitude
149.2544°
Altitude
592.811 km
Speed
7.564 km/s
True Right ascension
14h 43m 48s
True Declination
0° 00' 00"
Sunlit
Object was in daylight at epoch
Visualization orbit readout
Latitude
Unknown
Longitude
Unknown
Altitude
Unknown
Speed
Unknown
Apparent Right ascension
Unknown
Apparent Declination
Unknown
Sunlit
N/A
Visualization observer readout
Local Sidereal Time
09:41:30
Azimuth
Unknown
Elevation
Unknown
Doppler factor
Unknown
Orbital elements
Apogee altitude
589.925 km
Perigee altitude
585.972 km
Semi-major axis
6,966.086 km
Eccentricity
0.00028
Inclination
97.7631°
RAAN
220.9512°
Arg. of periapsis
54.1685°
True anomaly
305.95339°
Mean anomaly
305.9797°
Eccentric anomaly
305.96654°
Mean motion
3.73302 °/min
Orbital period
96.44 mins
BSTAR
0.000077124
Loading maneuver chart data...
Computing Atmospheric mass density...
Loading historical data...
Loading historical data...
Loading historical data...
Loading historical data...
Loading historical data...
Loading historical data...
Loading historical data...

Documentation

Showing up to 5 results
|